SCP
0 0 0 0 0 0 -0 -0 -0 -0 -0 -0 -0 -0 -0 -0 0 -0 -0 0 0 -0 -0 -0 0 0 0 0 0 0 -0 -0 0 0 0 0 0 0 -0 0 0 0 0 0 0
0 0 0 0 0 0 0 -0 -0 -0 -0 -0 -0 -0 -0 0 0 -0 0 -0 -0 -0 0 0 0 0 0 0 0 0 -0 0 0 0 0 0 0 0 0 0 0 0 0 0 0
0 0 0 0 0 0 0 -0 -0 -0 -0 -0 -0 -0 -0 0 0 -0 -0 -0 -0 0 0 0 0 0 0 -0 -0 -0 0 -0 0 0 0 0 0 0 0 0 -0 0 0 0 0
0 0 0 0 0 0 0 -0 -0 -0 -0 -0 -0 -0 -0 0 -0 0 -0 -0 -0 0 0 0 0 0 0 0 0 0 0 0 0 0 0 0 0 0 0 0 -0 -0 -0 -0 0
0 0 0 0 0 0 0 -0 -0 -0 -0 -0 -0 -0 -0 0 0 -0 -0 0 0 0 0 0 0 0 0 0 0 0 0 0 0 0 0 0 0 0 0 0 -0 0 0 0 0
0 0 0 0 0 0 0 0 -0 -0 0 -0 -0 -0 0 0 -0 -0 -0 0 -0 0 -0 -0 0 0 0 0 0 0 0 0 0 0 0 0 0 0 0 0 0 0 0 0 0
0 0 0 0 0 0 0 0 0 0 0 0 -0 0 -0 -0 -0 -0 -0 0 0 -0 0 -0 0 0 0 0 0 0 0 0 0 0 0 0 0 0 0 0 0 0 0 0 0
0 0 0 0 0 0 0 0 0 0 0 0 0 0 0 0 -0 -0 -0 0 -0 -0 0 0 0 0 0 0 0 0 0 0 0 0 0 0 0 0 0 0 0 0 0 0 0
0 0 0 0 0 0 0 0 0 0 0 0 0 0 0 0 0 -0 -0 -0 -0 -0 0 0 0 0 0 0 0 0 0 0 0 0 0 0 0 0 0 0 0 0 0 0 0
0 0 0 0 0 0 0 0 0 0 0 0 0 0 0 0 0 0 0 0 0 -0 -0 0 0 0 0 0 0 0 0 0 0 0 0 0 0 0 0 0 0 0 0 0 0
0 0 0 0 0 0 0 0 0 0 0 0 0 0 0 0 0 0 0 0 0 0 0 0 0 0 0 0 0 0 0 0 0 0 0 0 0 0 0 0 0 0 0 0 0
0 0 0 0 0 0 0 0 0 0 0 0 0 0 0 0 0 0 0 0 0 0 0 0 0 0 0 0 0 0 0 0 0 0 0 0 0 0 0 0 0 0 0 0 -0
0 0 0 0 0 0 0 0 0 0 0 0 0 0 0 0 0 0 0 0 0 0 0 0 0 0 0 0 0 0 0 0 0 0 0 0 0 0 0 0 0 0 0 0 0
0 0 0 0 0 0 0 0 0 0 0 0 0 0 0 0 0 0 0 0 0 0 0 0 0 0 0 0 0 0 0 0 0 0 0 0 0 0 0 0 0 0 0 0 0
0 0 0 0 0 0 0 0 0 0 0 0 0 0 0 0 0 0 0 0 0 0 0 0 0 0 0 0 0 0 0 0 0 0 0 0 0 0 0 0 0 0 0 0 0
0 0 0 0 0 0 0 0 0 0 0 0 0 0 0 0 0 0 0 0 0 0 0 0 0 0 0 0 0 0 0 0 0 0 0 0 0 0 0 0 0 0 0 0 0
0 0 0 0 0 0 0 0 0 0 0 0 0 0 0 0 0 0 0 0 0 0 0 0 0 0 0 0 0 0 0 0 0 0 0 0 0 0 0 0 0 0 0 0 0
0 0 0 0 0 0 0 0 0 0 0 0 0 0 0 0 0 0 0 0 0 0 0 0 0 0 0 0 0 0 0 0 0 0 0 0 0 0 0 0 0 0 0 0 0
0 0 0 0 0 0 0 0 0 0 0 0 0 0 0 0 0 0 0 0 0 0 0 0 0 0 0 0 0 0 0 0 0 0 0 0 0 0 0 0 0 0 0 0 0
0 0 0 0 0 0 0 0 0 0 0 0 0 0 0 0 0 0 0 0 0 0 0 0 0 0 0 0 0 0 0 0 0 0 0 0 0 0 0 0 0 0 0 0 0
0 0 0 0 0 0 0 0 0 0 0 0 0 0 0 0 0 0 0 0 0 0 0 0 0 0 0 0 0 0 0 0 0 0 0 0 0 0 0 0 0 0 0 0 0
0 0 0 0 0 0 0 0 0 0 0 0 0 0 0 0 0 0 0 0 0 0 0 0 0 0 0 0 0 0 0 0 0 0 0 0 0 0 0 0 0 0 0 0 0
0 0 0 0 0 0 0 0 0 0 0 0 0 0 0 0 0 0 0 0 0 0 0 0 0 0 0 0 0 0 0 0 0 0 0 0 0 0 0 0 0 0 0 0 0
0 0 0 0 0 0 0 0 0 0 0 0 0 0 0 0 0 0 0 0 0 0 0 0 0 0 0 0 0 0 0 0 0 0 0 0 0 0 0 0 0 0 0 0 0
0 0 0 0 0 0 0 0 0 0 0 0 0 0 0 0 0 0 0 0 0 0 0 0 0 0 0 0 0 0 0 0 0 0 0 0 0 0 0 0 0 0 0 0 0
0 0 0 0 0 0 0 0 0 0 0 0 0 0 0 0 0 0 0 0 0 0 0 0 0 0 0 0 0 0 0 0 0 0 0 -0 0 0 0 0 0 0 0 0 0
0 0 0 0 0 0 0 0 0 0 0 0 0 0 0 0 0 0 0 0 0 0 0 0 0 0 0 0 0 0 0 0 0 0 0 0 0 0 0 0 0 0 0 0 0
Wind_Speed_500mb
6 7 8 7 10 13 17 19 22 25 26 24 18 12 10 26 40 26 33 32 31 23 10 25 22 16 10 13 13 9 8 11 5 11 7 23 15 29 8 24 32 31 31 38 47
8 9 9 10 12 14 17 19 21 24 24 20 16 9 8 13 27 38 33 24 23 19 15 21 18 16 9 12 11 10 8 7 9 14 10 17 26 23 15 41 26 47 43 47 46
10 11 11 10 12 14 16 18 21 22 21 15 12 11 5 6 13 24 27 24 21 15 17 19 20 12 16 16 21 14 9 19 12 9 10 13 17 31 32 20 35 47 58 56 50
14 13 13 13 12 13 15 17 19 19 18 11 6 17 14 11 3 18 23 24 20 21 19 18 9 7 9 10 9 11 17 18 12 10 10 8 2 20 28 19 28 33 40 46 54
14 16 15 14 12 12 12 15 16 15 14 11 6 6 14 13 11 17 20 24 24 19 24 25 23 14 11 23 36 23 16 19 9 14 14 22 15 3 30 29 29 33 38 45 49
15 14 15 15 12 11 11 11 9 9 14 19 11 7 11 7 9 14 19 20 26 25 23 25 22 27 23 18 14 21 25 17 16 11 9 9 4 18 24 26 32 37 39 44 48
18 13 13 14 13 11 10 10 8 5 2 7 6 15 12 8 9 10 14 20 23 24 24 29 21 9 14 12 18 30 13 13 18 2 4 11 12 12 21 27 34 39 40 44 50
16 13 11 13 11 10 12 9 8 7 6 2 10 12 8 7 8 7 10 14 19 23 24 27 28 22 15 27 9 7 10 7 7 11 6 2 10 15 22 30 39 42 44 49 51
17 13 11 10 10 8 9 7 5 6 5 2 5 13 7 4 6 9 11 11 16 16 22 26 25 14 10 5 7 9 2 8 8 8 7 11 9 13 21 32 40 44 49 54 57
16 14 10 8 7 6 4 4 8 4 5 9 9 7 5 2 5 5 9 11 11 16 11 13 6 8 7 9 4 5 4 3 3 7 12 7 8 6 17 34 43 46 54 61 66
18 15 11 8 6 5 6 5 5 5 6 7 4 6 8 4 16 8 8 16 12 15 6 13 13 11 12 13 13 13 12 8 7 7 8 12 11 6 15 37 44 52 56 57 67
19 17 12 7 6 4 3 2 2 3 3 6 7 6 5 8 1 16 8 2 2 9 5 10 9 7 3 10 9 13 7 7 2 4 6 16 16 12 8 33 44 48 56 68 96
21 16 12 7 5 5 6 3 2 7 5 1 5 2 4 10 6 11 10 7 13 13 10 10 9 4 2 3 6 12 9 9 8 12 16 14 13 13 10 38 40 51 51 69 88
23 18 12 8 4 5 2 4 10 1 6 7 4 1 4 8 5 7 8 5 6 10 17 12 5 5 6 9 6 2 8 7 12 10 2 2 7 9 14 19 33 50 52 67 74
25 22 17 14 5 8 1 10 9 2 4 8 4 1 4 3 7 8 10 10 6 10 3 3 10 5 6 6 7 5 6 7 8 9 8 11 3 3 14 17 23 39 50 66 77
27 24 22 19 9 5 8 15 5 7 13 4 2 7 8 3 4 5 6 9 12 9 18 9 4 8 6 8 4 2 9 9 6 6 2 10 8 6 7 6 17 35 50 57 67
31 28 25 25 15 10 15 12 7 5 5 3 5 6 10 6 4 3 5 5 2 9 3 4 6 6 4 7 8 7 7 3 6 3 7 11 3 4 10 15 25 33 45 56 67
36 32 29 25 24 23 28 6 5 4 3 3 5 10 5 8 3 3 8 4 6 6 7 10 5 6 1 5 4 4 5 3 7 4 6 9 5 7 12 32 34 40 45 57 69
45 38 31 29 28 30 18 4 11 8 10 14 5 6 7 5 4 3 8 5 8 13 5 7 5 5 6 5 6 7 4 5 1 2 1 7 7 5 14 16 35 42 50 58 65
55 42 33 29 32 35 6 16 3 6 7 6 5 7 9 11 10 6 13 3 9 5 4 5 8 2 3 5 2 4 3 2 1 2 7 3 4 4 13 21 21 35 46 52 57
56 26 26 36 32 18 9 10 5 6 3 5 4 6 7 11 12 8 8 2 10 7 8 6 5 5 2 11 10 5 4 4 3 2 4 5 5 7 11 11 13 27 34 42 48
50 6 34 45 11 7 11 11 9 9 4 1 3 4 6 9 9 10 11 3 18 17 11 2 7 6 2 6 6 6 4 11 5 7 6 3 8 9 7 14 19 23 28 34 38
50 15 42 49 10 9 5 3 6 8 8 6 8 2 5 7 4 5 11 6 14 9 6 6 4 5 2 0 5 7 9 6 6 2 9 5 6 13 13 15 19 22 25 28 34
30 9 16 32 16 16 13 8 11 11 12 11 3 10 6 4 3 6 5 3 6 2 3 7 2 3 7 3 7 10 15 15 12 6 6 11 6 14 13 10 13 20 21 22 30
25 13 27 14 23 12 25 18 16 13 6 17 2 9 10 8 7 6 7 6 6 8 4 2 5 1 6 8 7 3 14 21 26 16 10 2 3 4 14 13 10 13 17 18 24
36 21 24 18 27 35 24 18 26 16 21 11 9 18 10 12 12 15 12 9 9 12 10 3 1 6 5 7 6 8 14 17 23 19 20 16 13 19 24 13 13 12 16 15 17
40 35 40 29 21 25 23 30 37 25 21 26 28 15 12 12 14 8 18 12 16 13 10 11 10 6 7 4 6 14 32 32 23 14 20 17 13 18 12 16 15 12 13 11 12
Wind_Direction_500mb
284 301 315 352 349 357 358 0 2 357 356 1 9 24 86 56 50 40 35 13 13 27 23 46 32 64 39 36 34 337 56 75 47 30 39 20 5 8 336 43 31 14 358 335 334
284 295 312 333 340 356 356 356 1 356 353 360 10 23 94 61 61 29 16 9 15 25 49 80 74 46 37 31 8 32 86 112 56 35 20 15 31 2 1 26 0 349 352 347 346
290 296 306 318 333 352 350 351 356 356 351 4 35 22 106 54 72 13 12 23 29 32 55 64 63 71 66 44 17 9 112 128 86 71 31 7 36 45 20 20 359 340 341 345 347
292 293 298 310 329 343 346 349 352 356 352 10 66 48 79 42 69 12 20 30 46 38 55 53 55 60 53 61 56 90 83 101 114 85 22 58 26 72 44 10 340 341 342 345 346
286 291 297 305 321 331 340 347 354 12 15 34 47 96 82 57 47 38 31 33 50 50 70 86 64 70 91 104 76 90 97 96 96 144 41 97 70 24 28 3 356 354 356 357 353
278 282 290 296 308 319 328 341 354 49 59 60 61 87 76 87 56 47 44 38 42 60 80 98 86 85 72 33 32 126 116 115 72 130 29 107 142 57 18 1 4 5 4 360 358
275 272 280 289 300 308 316 330 324 297 326 6 48 72 64 127 65 55 55 45 39 49 73 90 63 83 110 99 104 127 111 113 34 77 59 325 85 56 12 5 9 7 6 4 0
268 269 274 286 297 308 316 327 331 335 292 299 60 86 84 67 67 58 61 57 61 62 64 77 90 73 65 113 106 241 187 176 53 359 161 299 112 56 18 11 11 5 4 2 358
267 262 270 280 291 309 317 325 355 12 27 130 98 105 97 85 15 35 57 68 84 64 58 61 71 86 108 202 156 201 224 80 146 28 294 229 80 67 25 19 9 4 4 1 354
268 261 259 271 281 301 317 46 49 10 57 77 83 116 85 330 12 30 57 74 96 65 47 46 69 99 14 9 338 159 134 15 346 37 316 264 164 106 29 25 7 5 7 1 359
269 255 253 258 267 277 242 323 1 11 22 75 359 86 96 98 54 5 63 68 77 56 67 11 65 73 18 346 356 16 35 357 78 60 329 253 274 192 41 29 6 9 5 6 356
266 251 244 243 256 275 238 140 250 156 26 62 66 89 127 87 38 355 75 356 294 102 197 45 88 69 56 329 11 4 320 43 316 90 290 298 276 282 56 40 12 11 7 6 358
254 236 233 229 239 252 233 227 217 152 272 182 175 90 154 97 51 345 67 16 52 66 63 91 105 129 307 40 11 60 13 11 316 318 250 282 267 189 105 35 7 13 8 1 357
233 229 209 215 198 214 229 191 158 171 60 179 190 260 70 126 83 37 98 82 20 94 97 83 141 141 85 84 355 225 40 325 295 338 356 331 292 97 44 17 10 7 7 358 355
217 205 197 183 154 167 177 150 143 7 310 92 117 162 128 43 125 23 69 43 95 117 239 133 152 161 125 80 312 72 340 308 299 296 16 191 100 40 57 0 4 0 7 356 357
208 196 190 180 174 123 135 141 121 44 253 111 83 152 149 144 59 88 58 86 117 74 41 89 80 358 32 133 80 343 248 219 267 256 317 121 97 314 21 341 3 12 6 356 357
199 194 190 171 192 190 158 140 51 194 354 167 167 180 195 128 77 228 134 122 158 103 86 183 105 123 260 192 175 220 252 301 350 349 236 130 161 125 57 37 20 21 4 1 2
198 192 189 176 183 172 157 67 190 184 206 250 147 159 150 135 47 189 151 186 256 264 130 153 278 184 208 346 21 73 357 160 228 297 319 140 226 145 74 46 29 24 7 11 9
194 187 189 176 191 172 159 163 205 192 149 152 124 152 168 153 139 178 216 208 161 207 153 132 108 115 26 343 313 142 187 19 57 360 320 232 111 107 44 32 28 22 9 13 9
187 178 180 174 188 175 104 227 209 38 123 150 195 186 169 175 168 201 184 118 170 267 339 125 105 349 139 283 160 317 59 102 1 304 280 214 227 188 14 11 17 20 8 11 11
181 168 199 194 179 170 193 226 158 148 121 187 218 147 201 171 170 194 191 30 139 166 270 146 110 144 153 210 172 166 181 214 18 254 261 296 247 65 43 25 26 30 13 17 15
168 139 172 178 139 155 211 190 170 146 136 125 288 82 196 173 171 205 202 15 164 158 167 88 87 148 196 76 32 331 302 183 147 204 252 5 271 109 83 59 49 42 20 22 24
152 118 171 176 185 196 135 200 182 130 165 176 196 158 35 191 199 201 120 343 161 188 147 215 158 87 287 61 178 219 191 245 69 3 223 185 251 181 115 73 52 51 33 22 30
143 129 157 206 239 201 161 185 189 178 152 161 205 109 111 197 355 144 109 171 152 187 70 44 333 211 211 113 121 191 187 186 183 163 219 233 172 206 131 94 50 50 47 30 34
158 174 171 178 216 207 174 174 175 171 198 163 245 184 181 166 102 214 122 117 183 159 130 74 189 18 89 20 352 305 177 187 210 224 184 156 118 63 130 117 95 65 60 46 39
158 152 167 166 174 185 188 193 196 173 158 190 200 192 172 150 168 195 153 159 195 162 160 149 198 66 302 326 288 272 246 210 218 239 260 270 267 122 128 134 125 83 75 62 51
186 158 155 159 152 178 204 196 200 165 214 178 182 145 188 190 143 155 161 212 157 157 170 147 134 130 252 339 302 290 220 207 203 198 207 228 217 145 151 153 143 133 106 92 78
Wind_Speed_850mb
6 7 8 7 10 13 17 19 22 25 26 24 18 12 10 26 40 26 33 32 31 23 10 25 22 16 10 13 13 9 8 11 5 11 7 23 15 29 8 24 32 31 31 38 47
8 9 9 10 12 14 17 19 21 24 24 20 16 9 8 13 27 38 33 24 23 19 15 21 18 16 9 12 11 10 8 7 9 14 10 17 26 23 15 41 26 47 43 47 46
10 11 11 10 12 14 16 18 21 22 21 15 12 11 5 6 13 24 27 24 21 15 17 19 20 12 16 16 21 14 9 19 12 9 10 13 17 31 32 20 35 47 58 56 50
14 13 13 13 12 13 15 17 19 19 18 11 6 17 14 11 3 18 23 24 20 21 19 18 9 7 9 10 9 11 17 18 12 10 10 8 2 20 28 19 28 33 40 46 54
14 16 15 14 12 12 12 15 16 15 14 11 6 6 14 13 11 17 20 24 24 19 24 25 23 14 11 23 36 23 16 19 9 14 14 22 15 3 30 29 29 33 38 45 49
15 14 15 15 12 11 11 11 9 9 14 19 11 7 11 7 9 14 19 20 26 25 23 25 22 27 23 18 14 21 25 17 16 11 9 9 4 18 24 26 32 37 39 44 48
18 13 13 14 13 11 10 10 8 5 2 7 6 15 12 8 9 10 14 20 23 24 24 29 21 9 14 12 18 30 13 13 18 2 4 11 12 12 21 27 34 39 40 44 50
16 13 11 13 11 10 12 9 8 7 6 2 10 12 8 7 8 7 10 14 19 23 24 27 28 22 15 27 9 7 10 7 7 11 6 2 10 15 22 30 39 42 44 49 51
17 13 11 10 10 8 9 7 5 6 5 2 5 13 7 4 6 9 11 11 16 16 22 26 25 14 10 5 7 9 2 8 8 8 7 11 9 13 21 32 40 44 49 54 57
16 14 10 8 7 6 4 4 8 4 5 9 9 7 5 2 5 5 9 11 11 16 11 13 6 8 7 9 4 5 4 3 3 7 12 7 8 6 17 34 43 46 54 61 66
18 15 11 8 6 5 6 5 5 5 6 7 4 6 8 4 16 8 8 16 12 15 6 13 13 11 12 13 13 13 12 8 7 7 8 12 11 6 15 37 44 52 56 57 67
19 17 12 7 6 4 3 2 2 3 3 6 7 6 5 8 1 16 8 2 2 9 5 10 9 7 3 10 9 13 7 7 2 4 6 16 16 12 8 33 44 48 56 68 96
21 16 12 7 5 5 6 3 2 7 5 1 5 2 4 10 6 11 10 7 13 13 10 10 9 4 2 3 6 12 9 9 8 12 16 14 13 13 10 38 40 51 51 69 88
23 18 12 8 4 5 2 4 10 1 6 7 4 1 4 8 5 7 8 5 6 10 17 12 5 5 6 9 6 2 8 7 12 10 2 2 7 9 14 19 33 50 52 67 74
25 22 17 14 5 8 1 10 9 2 4 8 4 1 4 3 7 8 10 10 6 10 3 3 10 5 6 6 7 5 6 7 8 9 8 11 3 3 14 17 23 39 50 66 77
27 24 22 19 9 5 8 15 5 7 13 4 2 7 8 3 4 5 6 9 12 9 18 9 4 8 6 8 4 2 9 9 6 6 2 10 8 6 7 6 17 35 50 57 67
31 28 25 25 15 10 15 12 7 5 5 3 5 6 10 6 4 3 5 5 2 9 3 4 6 6 4 7 8 7 7 3 6 3 7 11 3 4 10 15 25 33 45 56 67
36 32 29 25 24 23 28 6 5 4 3 3 5 10 5 8 3 3 8 4 6 6 7 10 5 6 1 5 4 4 5 3 7 4 6 9 5 7 12 32 34 40 45 57 69
45 38 31 29 28 30 18 4 11 8 10 14 5 6 7 5 4 3 8 5 8 13 5 7 5 5 6 5 6 7 4 5 1 2 1 7 7 5 14 16 35 42 50 58 65
55 42 33 29 32 35 6 16 3 6 7 6 5 7 9 11 10 6 13 3 9 5 4 5 8 2 3 5 2 4 3 2 1 2 7 3 4 4 13 21 21 35 46 52 57
56 26 26 36 32 18 9 10 5 6 3 5 4 6 7 11 12 8 8 2 10 7 8 6 5 5 2 11 10 5 4 4 3 2 4 5 5 7 11 11 13 27 34 42 48
50 6 34 45 11 7 11 11 9 9 4 1 3 4 6 9 9 10 11 3 18 17 11 2 7 6 2 6 6 6 4 11 5 7 6 3 8 9 7 14 19 23 28 34 38
50 15 42 49 10 9 5 3 6 8 8 6 8 2 5 7 4 5 11 6 14 9 6 6 4 5 2 0 5 7 9 6 6 2 9 5 6 13 13 15 19 22 25 28 34
30 9 16 32 16 16 13 8 11 11 12 11 3 10 6 4 3 6 5 3 6 2 3 7 2 3 7 3 7 10 15 15 12 6 6 11 6 14 13 10 13 20 21 22 30
25 13 27 14 23 12 25 18 16 13 6 17 2 9 10 8 7 6 7 6 6 8 4 2 5 1 6 8 7 3 14 21 26 16 10 2 3 4 14 13 10 13 17 18 24
36 21 24 18 27 35 24 18 26 16 21 11 9 18 10 12 12 15 12 9 9 12 10 3 1 6 5 7 6 8 14 17 23 19 20 16 13 19 24 13 13 12 16 15 17
40 35 40 29 21 25 23 30 37 25 21 26 28 15 12 12 14 8 18 12 16 13 10 11 10 6 7 4 6 14 32 32 23 14 20 17 13 18 12 16 15 12 13 11 12
Wind_Direction_850mb
284 301 315 352 349 357 358 0 2 357 356 1 9 24 86 56 50 40 35 13 13 27 23 46 32 64 39 36 34 337 56 75 47 30 39 20 5 8 336 43 31 14 358 335 334
284 295 312 333 340 356 356 356 1 356 353 360 10 23 94 61 61 29 16 9 15 25 49 80 74 46 37 31 8 32 86 112 56 35 20 15 31 2 1 26 0 349 352 347 346
290 296 306 318 333 352 350 351 356 356 351 4 35 22 106 54 72 13 12 23 29 32 55 64 63 71 66 44 17 9 112 128 86 71 31 7 36 45 20 20 359 340 341 345 347
292 293 298 310 329 343 346 349 352 356 352 10 66 48 79 42 69 12 20 30 46 38 55 53 55 60 53 61 56 90 83 101 114 85 22 58 26 72 44 10 340 341 342 345 346
286 291 297 305 321 331 340 347 354 12 15 34 47 96 82 57 47 38 31 33 50 50 70 86 64 70 91 104 76 90 97 96 96 144 41 97 70 24 28 3 356 354 356 357 353
278 282 290 296 308 319 328 341 354 49 59 60 61 87 76 87 56 47 44 38 42 60 80 98 86 85 72 33 32 126 116 115 72 130 29 107 142 57 18 1 4 5 4 360 358
275 272 280 289 300 308 316 330 324 297 326 6 48 72 64 127 65 55 55 45 39 49 73 90 63 83 110 99 104 127 111 113 34 77 59 325 85 56 12 5 9 7 6 4 0
268 269 274 286 297 308 316 327 331 335 292 299 60 86 84 67 67 58 61 57 61 62 64 77 90 73 65 113 106 241 187 176 53 359 161 299 112 56 18 11 11 5 4 2 358
267 262 270 280 291 309 317 325 355 12 27 130 98 105 97 85 15 35 57 68 84 64 58 61 71 86 108 202 156 201 224 80 146 28 294 229 80 67 25 19 9 4 4 1 354
268 261 259 271 281 301 317 46 49 10 57 77 83 116 85 330 12 30 57 74 96 65 47 46 69 99 14 9 338 159 134 15 346 37 316 264 164 106 29 25 7 5 7 1 359
269 255 253 258 267 277 242 323 1 11 22 75 359 86 96 98 54 5 63 68 77 56 67 11 65 73 18 346 356 16 35 357 78 60 329 253 274 192 41 29 6 9 5 6 356
266 251 244 243 256 275 238 140 250 156 26 62 66 89 127 87 38 355 75 356 294 102 197 45 88 69 56 329 11 4 320 43 316 90 290 298 276 282 56 40 12 11 7 6 358
254 236 233 229 239 252 233 227 217 152 272 182 175 90 154 97 51 345 67 16 52 66 63 91 105 129 307 40 11 60 13 11 316 318 250 282 267 189 105 35 7 13 8 1 357
233 229 209 215 198 214 229 191 158 171 60 179 190 260 70 126 83 37 98 82 20 94 97 83 141 141 85 84 355 225 40 325 295 338 356 331 292 97 44 17 10 7 7 358 355
217 205 197 183 154 167 177 150 143 7 310 92 117 162 128 43 125 23 69 43 95 117 239 133 152 161 125 80 312 72 340 308 299 296 16 191 100 40 57 0 4 0 7 356 357
208 196 190 180 174 123 135 141 121 44 253 111 83 152 149 144 59 88 58 86 117 74 41 89 80 358 32 133 80 343 248 219 267 256 317 121 97 314 21 341 3 12 6 356 357
199 194 190 171 192 190 158 140 51 194 354 167 167 180 195 128 77 228 134 122 158 103 86 183 105 123 260 192 175 220 252 301 350 349 236 130 161 125 57 37 20 21 4 1 2
198 192 189 176 183 172 157 67 190 184 206 250 147 159 150 135 47 189 151 186 256 264 130 153 278 184 208 346 21 73 357 160 228 297 319 140 226 145 74 46 29 24 7 11 9
194 187 189 176 191 172 159 163 205 192 149 152 124 152 168 153 139 178 216 208 161 207 153 132 108 115 26 343 313 142 187 19 57 360 320 232 111 107 44 32 28 22 9 13 9
187 178 180 174 188 175 104 227 209 38 123 150 195 186 169 175 168 201 184 118 170 267 339 125 105 349 139 283 160 317 59 102 1 304 280 214 227 188 14 11 17 20 8 11 11
181 168 199 194 179 170 193 226 158 148 121 187 218 147 201 171 170 194 191 30 139 166 270 146 110 144 153 210 172 166 181 214 18 254 261 296 247 65 43 25 26 30 13 17 15
168 139 172 178 139 155 211 190 170 146 136 125 288 82 196 173 171 205 202 15 164 158 167 88 87 148 196 76 32 331 302 183 147 204 252 5 271 109 83 59 49 42 20 22 24
152 118 171 176 185 196 135 200 182 130 165 176 196 158 35 191 199 201 120 343 161 188 147 215 158 87 287 61 178 219 191 245 69 3 223 185 251 181 115 73 52 51 33 22 30
143 129 157 206 239 201 161 185 189 178 152 161 205 109 111 197 355 144 109 171 152 187 70 44 333 211 211 113 121 191 187 186 183 163 219 233 172 206 131 94 50 50 47 30 34
158 174 171 178 216 207 174 174 175 171 198 163 245 184 181 166 102 214 122 117 183 159 130 74 189 18 89 20 352 305 177 187 210 224 184 156 118 63 130 117 95 65 60 46 39
158 152 167 166 174 185 188 193 196 173 158 190 200 192 172 150 168 195 153 159 195 162 160 149 198 66 302 326 288 272 246 210 218 239 260 270 267 122 128 134 125 83 75 62 51
186 158 155 159 152 178 204 196 200 165 214 178 182 145 188 190 143 155 161 212 157 157 170 147 134 130 252 339 302 290 220 207 203 198 207 228 217 145 151 153 143 133 106 92 78